Weather History for Fairbanks Eiels, AK

Change the Weather History Date:

Tuesday, October 22, 2013

  Actual Average Record
Temperature  
Mean Temperature 26 °F -  
Max Temperature 36 °F 25 °F 51 °F (1957)
Min Temperature 17 °F 12 °F -13 °F (1988)
Degree Days  
Heating Degree Days 38    
Moisture  
Dew Point 20 °F    
Average Humidity 85    
Maximum Humidity 91    
Minimum Humidity 66    
Precipitation  
Precipitation 0.00 in - - ()
Sea Level Pressure  
Sea Level Pressure 30.16 in    
Wind  
Wind Speed 1 mph (East)    
Max Wind Speed 5 mph    
Max Gust Speed -    
Visibility 10 miles    
Events      
Averages and records for this station are not official NWS values.
T = Trace of Precipitation, MM = Missing Value Source: NWS Daily Summary

Daily Weather History Graph

Daily Weather History Graph

Search for Another Location

Airport:

Trip Planner

Search our weather history database for the weather conditions in past years. The results will help you decide how hot, cold, wet, or windy it might be!

Date:

Astronomy

Oct. 22, 2013 Rise Set
Actual Time 9:03 AM AKDT 6:00 PM AKDT
Civil Twilight 8:12 AM AKDT 6:51 PM AKDT
Nautical Twilight 7:15 AM AKDT 7:48 PM AKDT
Astronomical Twilight 6:18 AM AKDT 8:44 PM AKDT
Moon 7:39 PM AKDT (10/22) 1:49 PM AKDT (10/22)
Length of Visible Light 10h 39m
Length of Day
8h 56m
Waning Gibbous, 86% of the Moon is Illuminated
Oct 22
Waning Gibbous
Oct 26
Last Quarter
Nov 3
New
Nov 9
First Quarter
Nov 17
Full

Hourly Weather History & Observations

Time (AKDT) Temp. Windchill Dew Point Humidity Pressure Visibility Wind Dir Wind Speed Gust Speed Precip Events Conditions
12:58 AM 17.8 °F - 15.3 °F 90% 30.11 in 10.0 mi Calm Calm - N/A   Clear
1:58 AM 19.4 °F - 17.2 °F 91% 30.10 in 10.0 mi Calm Calm - N/A   Clear
2:58 AM 19.9 °F - 17.8 °F 91% 30.10 in 10.0 mi WNW 2.3 mph - N/A   Clear
3:58 AM 17.2 °F - 14.0 °F 87% 30.12 in 10.0 mi Calm Calm - N/A   Clear
4:58 AM 17.1 °F - 14.7 °F 91% 30.10 in 10.0 mi Calm Calm - N/A   Clear
5:58 AM 18.1 °F - 15.1 °F 88% 30.11 in 10.0 mi Calm Calm - N/A   Clear
6:58 AM 18.3 °F - 15.6 °F 89% 30.12 in 10.0 mi Calm Calm - N/A   Overcast
7:58 AM 18.9 °F - 15.8 °F 88% 30.13 in 10.0 mi Calm Calm - N/A   Overcast
8:58 AM 21.2 °F - 18.0 °F 87% 30.15 in 10.0 mi Calm Calm - N/A   Overcast
9:58 AM 22.8 °F - 20.1 °F 89% 30.16 in 10.0 mi ENE 2.3 mph - N/A   Mostly Cloudy
10:58 AM 26.6 °F - 22.8 °F 86% 30.16 in 10.0 mi Calm Calm - N/A   Mostly Cloudy
11:58 AM 27.1 °F - 23.5 °F 86% 30.18 in 10.0 mi Calm Calm - N/A   Scattered Clouds
12:28 PM 26.6 °F 21.2 °F 23.0 °F 86% 30.14 in 10.0 mi SE 4.6 mph - N/A   Mostly Cloudy
12:43 PM 28.4 °F - 24.8 °F 86% 30.14 in 10.0 mi Variable 2.3 mph - N/A   Partly Cloudy
12:58 PM 29.3 °F - 25.3 °F 85% 30.18 in 10.0 mi Calm Calm - N/A   Partly Cloudy
1:56 PM 32.0 °F - 26.6 °F 80% 30.15 in 10.0 mi Calm Calm - N/A   Overcast
2:56 PM 33.8 °F - 26.6 °F 75% 30.16 in 10.0 mi North 2.3 mph - N/A   Clear
3:58 PM 36.0 °F - 25.7 °F 66% 30.19 in 10.0 mi Calm Calm - N/A   Clear
4:58 PM 35.1 °F - 24.8 °F 66% 30.20 in 10.0 mi Calm Calm - N/A   Clear
5:58 PM 30.0 °F - 24.3 °F 79% 30.20 in 10.0 mi Calm Calm - N/A   Clear
6:58 PM 26.2 °F - 23.0 °F 88% 30.20 in 10.0 mi Calm Calm - N/A   Clear
7:58 PM 25.0 °F - 22.1 °F 89% 30.20 in 10.0 mi Calm Calm - N/A   Clear
8:58 PM 23.0 °F - 20.5 °F 90% 30.20 in 10.0 mi Calm Calm - N/A   Clear
9:58 PM 21.4 °F 15.1 °F 18.3 °F 88% 30.19 in 10.0 mi SSE 4.6 mph - N/A   Partly Cloudy
10:58 PM 19.0 °F - 15.8 °F 87% 30.18 in 10.0 mi Calm Calm - N/A   Clear
11:58 PM 21.0 °F - 18.3 °F 89% 30.18 in 10.0 mi Calm Calm - N/A   Overcast